Weather History for Sheboygan, WI

Change the Weather History Date:

Tuesday, November 27, 2012

  Actual Average Record
Temperature  
Mean Temperature 21 °F -  
Max Temperature 32 °F 40 °F 64 °F (1998)
Min Temperature 10 °F 29 °F 3 °F (2014)
Degree Days  
Heating Degree Days 44    
Moisture  
Dew Point 11 °F    
Average Humidity 64    
Maximum Humidity 88    
Minimum Humidity 42    
Precipitation  
Precipitation 0.00 in - - ()
Sea Level Pressure  
Sea Level Pressure 30.30 in    
Wind  
Wind Speed 6 mph (WSW)    
Max Wind Speed 16 mph    
Max Gust Speed 25 mph    
Visibility 10 miles    
Events      
Averages and records for this station are not official NWS values.
T = Trace of Precipitation, MM = Missing Value Source: NWS Daily Summary

Daily Weather History Graph

Daily Weather History Graph

Search for Another Location

Airport:

Trip Planner

Search our weather history database for the weather conditions in past years. The results will help you decide how hot, cold, wet, or windy it might be!

Date:

Astronomy

Nov. 27, 2012 Rise Set
Actual Time 7:01 AM CST 4:16 PM CST
Civil Twilight 6:29 AM CST 4:48 PM CST
Nautical Twilight 5:53 AM CST 5:24 PM CST
Astronomical Twilight 5:19 AM CST 5:58 PM CST
Moon 3:48 PM CST (11/27) 6:05 AM CST (11/27)
Length of Visible Light 10h 19m
Length of Day
9h 15m
Waxing Gibbous, 99% of the Moon is Illuminated
Nov 27
Waxing Gibbous
Nov 28
Full
Dec 6
Last Quarter
Dec 13
New
Dec 19
First Quarter

Hourly Weather History & Observations

Time (CST) Temp. Windchill Dew Point Humidity Pressure Visibility Wind Dir Wind Speed Gust Speed Precip Events Conditions
12:53 AM 14.0 °F 8.2 °F 10.0 °F 84% 30.38 in 10.0 mi West 3.5 mph - N/A   Clear
1:53 AM 12.9 °F - 8.1 °F 81% 30.39 in 10.0 mi Calm Calm - N/A   Clear
2:53 AM 12.9 °F 5.2 °F 9.0 °F 84% 30.38 in 10.0 mi West 4.6 mph - N/A   Clear
3:53 AM 10.9 °F 4.7 °F 8.1 °F 88% 30.38 in 10.0 mi West 3.5 mph - N/A   Clear
4:53 AM 10.9 °F 2.9 °F 8.1 °F 88% 30.38 in 10.0 mi West 4.6 mph - N/A   Clear
5:53 AM 12.9 °F 3.8 °F 9.0 °F 84% 30.37 in 10.0 mi WSW 5.8 mph - N/A   Clear
6:53 AM 10.9 °F 2.9 °F 8.1 °F 88% 30.38 in 10.0 mi SSW 4.6 mph - N/A   Clear
7:53 AM 14.0 °F 6.5 °F 9.0 °F 80% 30.39 in 10.0 mi WSW 4.6 mph - N/A   Clear
8:53 AM 19.0 °F 8.2 °F 12.0 °F 74% 30.38 in 10.0 mi West 9.2 mph - N/A   Clear
9:53 AM 23.0 °F 13.1 °F 12.0 °F 63% 30.38 in 10.0 mi WSW 9.2 mph - N/A   Clear
10:53 AM 27.0 °F 18.7 °F 12.0 °F 53% 30.36 in 10.0 mi WSW 8.1 mph - N/A   Clear
11:53 AM 30.0 °F 21.1 °F 12.0 °F 47% 30.32 in 10.0 mi SW 10.4 mph - N/A   Clear
12:53 PM 32.0 °F 22.5 °F 10.9 °F 42% 30.30 in 10.0 mi SW 12.7 mph - N/A   Clear
1:53 PM 32.0 °F 23.6 °F 12.0 °F 44% 30.27 in 10.0 mi WSW 10.4 mph - N/A   Partly Cloudy
2:53 PM 30.9 °F 23.5 °F 10.9 °F 43% 30.25 in 10.0 mi SW 8.1 mph - N/A   Partly Cloudy
3:53 PM 28.9 °F 21.1 °F 12.0 °F 49% 30.25 in 10.0 mi SW 8.1 mph - N/A   Clear
4:53 PM 26.1 °F 16.8 °F 12.0 °F 55% 30.23 in 10.0 mi SSW 9.2 mph - N/A   Clear
5:53 PM 25.0 °F 15.5 °F 12.9 °F 60% 30.22 in 10.0 mi SSW 9.2 mph - N/A   Partly Cloudy
6:53 PM 27.0 °F 17.3 °F 14.0 °F 58% 30.21 in 10.0 mi SSW 10.4 mph - N/A   Overcast
7:53 PM 28.0 °F 17.5 °F 14.0 °F 56% 30.20 in 10.0 mi SW 12.7 mph - N/A   Overcast
8:53 PM 28.9 °F 19.2 °F 12.9 °F 51% 30.19 in 10.0 mi WSW 11.5 mph - N/A   Overcast
9:53 PM 30.0 °F 18.7 °F 12.9 °F 49% 30.20 in 10.0 mi WSW 16.1 mph 25.3 mph N/A   Overcast
10:53 PM 28.9 °F 18.6 °F 14.0 °F 54% 30.20 in 10.0 mi West 12.7 mph - N/A   Overcast
11:53 PM 27.0 °F 17.3 °F 19.0 °F 72% 30.20 in 10.0 mi WSW 10.4 mph - 0.00 in   Mostly Cloudy